User: anonymous   Login
Location: Unspecified
(0.0000°N, 0.0000°E)
Time: 13:19:46
(UTC+00:00)
Language:

Vela 2A - Orbit

View from above orbital plane
View from above orbital plane
View from above satellite
View from above satellite

Ground track
Ground track

The orbit data is extracted from the following two-line orbital elements,

1 00836U 64040A   15186.59188628  .00000123  00000-0  00000+0 0  9994
2 00836 081.3599 322.0398 3371772 247.3885 359.9394 00.23904631 44523
Epoch (UTC): 05 July 2015 14:12:18
Eccentricity: 0.3371772
inclination: 81.3599°
perigee height: 66311 km
apogee height: 140266 km
right ascension of ascending node: 322.0398°
argument of perigee: 247.3885°
revolutions per day: 0.23904631
mean anomaly at epoch: 359.9394°
orbit number at epoch: 4452

The dashed part of the orbit path shows where the satellite is in the earth's shadow,  

DLR